Location: Ariel
(45.9570°N, 122.5700°W)
Time: 23:53:44
(UTC-07:00)

Tiros 1 - Pass Details

Date: 28 July 2019
Orbit: 630 x 664 km, 48.4° (Epoch: 21 August)

Event Time Altitude Azimuth Distance (km) Brightness Sun altitude
Rises 13:20:45 0° 274° (W) 2,987 10.6 62.9°
Reaches altitude 10° 13:23:07 10° 278° (W) 2,078 9.9 62.9°
Maximum altitude 13:27:53 64° 360° (N) 733 8.1 62.8°
Drops below altitude 10° 13:32:41 10° 83° (E) 2,083 9.8 62.7°
Sets 13:35:03 0° 86° (E) 2,995 10.5 62.7°
